Waarnemingen

Advertentie
Mijn weer
Nantes, Frankrijk (7222): temperatuur & dauwpunt: 20.04.2018 11:00:00 - 26.04.2018 11:00:00 (CEST)Nantes, Frankrijk (7222): temperatuur 5cm: 20.04.2018 11:00:00 - 26.04.2018 11:00:00 (CEST)Nantes, Frankrijk (7222): temperatuur -20cm & temperatuur -100cm: 20.04.2018 11:00:00 - 26.04.2018 11:00:00 (CEST)Nantes, Frankrijk (7222): windsnelheid & windstoten: 20.04.2018 11:00:00 - 26.04.2018 11:00:00 (CEST)Nantes, Frankrijk (7222): windrichting: 20.04.2018 11:00:00 - 26.04.2018 11:00:00 (CEST)Nantes, Frankrijk (7222): luchtdruk: 20.04.2018 11:00:00 - 26.04.2018 11:00:00 (CEST)Nantes, Frankrijk (7222): zicht: 20.04.2018 11:00:00 - 26.04.2018 11:00:00 (CEST)Nantes, Frankrijk (7222): Zonneschijnduur: 20.04.2018 11:00:00 - 26.04.2018 11:00:00 (CEST)Nantes, Frankrijk (7222): neerslag: 20.04.2018 11:00:00 - 26.04.2018 11:00:00 (CEST)
Datum & Tijd tt [°C] td [°C] tt 5cm [°C] tt -20cm [°C] tt -100cm [°C] ff [km/u] ff [kn] fx [km/u] fx [kn] dd ppp [hPa] vv [km] sd [min] rr [mm]
26.04.2018 11:00:00 13,4 8,0 19,6 14,3 13,2 12 7 21 12 W 1023,5 20 57 0,0
26.04.2018 10:00:00 10,8 10,2 10,7 14,4 13,2 6 3 10 6 WZW 1023,5 20 9 0,0
26.04.2018 09:00:00 8,0 7,7 7,2 14,5 13,2 3 1 10 5 Z 1023,4 12 0 0,2
26.04.2018 08:00:00 6,1 5,7 -0,4 14,6 13,2 2 1 6 3 ZZW 1023,2 8 13 0,0
26.04.2018 07:00:00 4,6 4,0 -1,9 14,8 13,2 5 3 8 4 Z 1023,1 12 0 0,0
26.04.2018 06:00:00 5,1 4,4 -2,0 14,9 13,2 0 0 8 4 N 1023,2 15 0 0,0
26.04.2018 05:00:00 6,2 5,5 -2,0 15,0 13,2 6 4 9 5 ZW 1023,1 16 0 0,0
26.04.2018 04:00:00 6,8 5,9 -1,7 15,1 13,2 5 3 9 5 WZW 1023,4 17 0 0,0
26.04.2018 03:00:00 7,1 5,9 -1,2 15,2 13,2 7 4 16 8 W 1023,5 20 0 0,0
26.04.2018 02:00:00 7,8 6,1 0,9 15,3 13,2 8 5 15 8 WNW 1023,5 36 0 0,0
26.04.2018 01:00:00 8,4 6,2 3,0 15,3 13,2 11 6 17 9 W 1023,2 40 0 0,0
26.04.2018 00:00:00 8,7 6,8 4,2 15,4 13,2 10 5 14 8 W 1023,0 20 0 0,0
25.04.2018 23:00:00 9,7 7,1 5,9 15,4 13,2 10 6 23 12 W 1022,6 36 0 0,0
25.04.2018 22:00:00 11,1 7,2 8,1 15,4 13,2 16 9 30 16 WNW 1022,1 42 0 0,0
25.04.2018 21:00:00 12,0 7,5 9,3 15,4 13,2 16 9 35 19 W 1021,3 39 0 0,0
25.04.2018 20:00:00 13,6 7,4 12,7 15,3 13,1 20 11 40 22 W 1020,5 35 37 0,0
25.04.2018 19:00:00 14,7 8,0 16,5 15,3 13,1 29 15 42 23 W 1020,4 20 55 0,0
25.04.2018 18:00:00 15,5 7,0 23,4 15,2 13,1 27 15 44 24 W 1020,2 19 60 0,0
25.04.2018 17:00:00 16,2 9,1 23,1 15,1 13,1 29 16 44 24 W 1020,2 20 53 0,0
25.04.2018 16:00:00 16,2 8,2 23,8 15,1 13,1 25 14 42 23 W 1020,1 38 46 0,0
25.04.2018 15:00:00 16,4 8,9 22,1 15,0 13,1 21 12 39 21 W 1020,0 19 39 0,0
25.04.2018 14:00:00 15,6 9,0 23,4 15,0 13,1 22 12 34 18 W 1020,0 26 32 0,0
25.04.2018 13:00:00 15,2 11,0 18,6 15,0 13,1 18 10 30 16 NNW 1019,9 58 7 0,0
25.04.2018 12:00:00 15,3 11,3 18,4 15,0 13,1 17 9 33 18 W 1019,4 20 10 0,0
25.04.2018 11:00:00 15,6 12,7 14,3 15,0 13,2 20 11 33 18 WNW 1018,5 34 25 0,0
25.04.2018 10:00:00 14,3 12,7 15,3 15,0 13,1 17 9 32 17 W 1018,2 4,2 14 0,2
25.04.2018 09:00:00 13,5 12,7 13,1 15,0 13,1 13 7 22 12 W 1018,0 19 0 0,0
25.04.2018 08:00:00 12,8 11,9 12,4 15,1 13,1 11 6 29 16 WZW 1017,6 4,4 0 0,0
25.04.2018 07:00:00 13,2 11,3 12,0 15,1 13,1 15 8 28 15 W 1016,9 50 0 0,0
25.04.2018 06:00:00 12,8 11,5 10,8 15,1 13,1 12 6 21 11 WZW 1016,9 46 0 0,0
25.04.2018 05:00:00 12,5 11,6 11,9 15,2 13,1 13 7 24 13 W 1016,9 18 0 0,0
25.04.2018 04:00:00 12,4 11,5 11,2 15,3 13,1 11 6 22 12 W 1017,3 33 0 0,0
25.04.2018 03:00:00 12,1 10,3 10,3 15,3 13,1 9 5 14 8 WZW 1017,4 36 0 0,0
25.04.2018 02:00:00 11,1 9,5 5,2 15,4 13,1 6 3 13 7 WZW 1017,7 36 0 0,0
25.04.2018 01:00:00 9,6 7,7 4,4 15,4 13,1 9 5 13 7 WZW 1017,6 34 0 0,0
25.04.2018 00:00:00 10,9 8,1 8,0 15,5 13,1 9 5 18 10 W 1017,8 41 0 0,0
24.04.2018 23:00:00 12,3 8,8 10,9 15,5 13,1 16 8 26 14 W 1018,3 44 0 0,0
24.04.2018 22:00:00 12,1 8,8 8,0 15,4 13,1 11 6 19 10 W 1017,8 50 0 0,0
24.04.2018 21:00:00 12,3 8,6 10,1 15,4 13,1 12 6 26 14 W 1017,3 54 0 0,0
24.04.2018 20:00:00 14,1 8,9 13,4 15,3 13,1 14 7 24 13 W 1017,3 38 39 0,0
24.04.2018 19:00:00 15,6 9,5 19,5 15,2 13,0 14 7 26 14 WZW 1017,6 35 58 0,0
24.04.2018 18:00:00 16,3 9,7 25,5 15,0 13,0 16 9 37 20 W 1018,0 27 60 0,0
24.04.2018 17:00:00 16,6 9,5 29,7 14,9 13,0 16 9 30 16 W 1018,6 20 60 0,0
24.04.2018 16:00:00 17,0 10,1 30,0 14,8 13,0 16 9 31 17 W 1019,1 20 60 0,0
24.04.2018 15:00:00 17,6 10,7 32,8 14,7 13,0 10 5 23 12 WZW 1019,4 17 57 0,0
24.04.2018 14:00:00 16,4 9,6 26,4 14,6 13,0 8 4 21 11 W 1020,1 18 35 0,0
24.04.2018 13:00:00 16,6 10,2 21,3 14,6 13,0 10 5 21 11 W 1020,6 19 32 0,0
24.04.2018 12:00:00 15,3 9,9 25,8 14,6 13,0 11 6 21 11 WZW 1021,0 17 49 0,0
24.04.2018 11:00:00 14,3 9,7 24,6 14,6 13,0 10 5 17 9 W 1021,0 19 60 0,0
24.04.2018 10:00:00 11,7 10,9 15,1 14,7 13,0 7 4 12 6 WZW 1021,0 16 60 0,0
24.04.2018 09:00:00 9,1 8,8 4,6 14,9 13,0 2 1 4 2 ZZW 1021,3 8 39 0,0
24.04.2018 08:00:00 5,8 5,5 -0,7 15,0 13,0 0 0 3 2 N 1020,7 0,5 0 0,0
24.04.2018 07:00:00 4,9 4,5 -1,2 15,2 13,0 3 1 4 2 ZZW 1020,4 0,3 0 0,0
24.04.2018 06:00:00 5,2 4,8 -1,2 15,3 13,0 2 1 3 2 W 1020,6 0,4 0 0,0
24.04.2018 05:00:00 5,6 5,2 -1,2 15,4 13,0 2 1 4 2 W 1020,9 0,8 0 0,0
24.04.2018 04:00:00 7,0 6,6 -0,8 15,6 13,0 0 0 3 2 N 1021,0 14 0 0,0
24.04.2018 03:00:00 6,8 6,1 -0,4 15,6 13,0 3 2 4 2 WNW 1021,3 8 0 0,0
24.04.2018 02:00:00 7,3 6,4 0,6 15,7 12,9 2 1 4 2 WZW 1021,5 5 0 0,0
24.04.2018 01:00:00 8,7 7,6 1,3 15,8 13,0 3 1 6 4 W 1021,8 25 0 0,0
24.04.2018 00:00:00 9,2 7,6 2,5 15,9 13,0 5 3 8 4 WZW 1022,0 34 0 0,0
23.04.2018 23:00:00 10,3 8,2 5,2 15,9 12,9 5 3 15 8 W 1021,9 42 0 0,0
23.04.2018 22:00:00 11,6 8,8 8,0 15,9 12,9 10 5 16 8 W 1021,6 51 0 0,0
23.04.2018 21:00:00 13,1 9,2 10,9 15,8 12,9 10 5 19 11 WZW 1020,8 58 7 0,0
23.04.2018 20:00:00 14,9 9,9 14,2 15,8 12,9 12 7 24 13 WZW 1020,4 41 37 0,0
23.04.2018 19:00:00 16,6 11,1 19,9 15,7 12,9 17 9 25 13 WZW 1020,4 39 35 0,0
23.04.2018 18:00:00 17,4 10,7 21,5 15,7 12,9 13 7 22 12 ZW 1020,4 52 41 0,0
23.04.2018 17:00:00 16,8 10,6 21,5 15,6 12,9 13 7 21 11 WZW 1020,4 56 11 0,0
23.04.2018 16:00:00 17,3 10,7 22,6 15,6 12,9 10 6 21 11 WNW 1020,7 22 10 0,0
23.04.2018 15:00:00 16,6 10,7 23,5 15,5 12,8 11 6 17 9 WZW 1021,1 19 11 0,0
23.04.2018 14:00:00 16,5 11,6 23,8 15,5 12,9 5 3 16 9 OZO 1021,1 16 6 0,0
23.04.2018 13:00:00 14,9 11,9 18,9 15,5 12,9 8 5 16 9 NNO 1021,5 18 4 0,0
23.04.2018 12:00:00 15,1 11,5 18,3 15,5 12,8 3 2 7 4 WNW 1021,3 16 1 0,0
23.04.2018 11:00:00 14,0 11,3 18,2 15,6 12,8 0 0 4 2 N 1021,2 14 0 0,0
23.04.2018 10:00:00 12,8 11,7 12,9 15,6 12,8 0 0 4 2 N 1020,4 13 0 0,0
23.04.2018 09:00:00 11,5 10,9 11,3 15,7 12,8 2 1 9 5 W 1020,2 19 0 0,0
23.04.2018 08:00:00 10,5 10,0 6,3 15,8 12,8 0 0 7 4 N 1019,4 20 0 0,0
23.04.2018 07:00:00 10,2 9,7 7,2 15,9 12,8 5 3 13 7 NW 1019,0 15 0 0,0
23.04.2018 06:00:00 10,8 10,3 3,7 16,0 12,8 6 3 13 7 WNW 1018,6 17 0 0,0
23.04.2018 05:00:00 10,4 9,8 3,8 16,1 12,8 3 1 13 7 ZZW 1018,5 14 0 0,0
23.04.2018 04:00:00 10,8 10,2 5,5 16,1 12,8 10 6 14 7 W 1017,8 16 0 0,0
23.04.2018 03:00:00 10,6 9,8 5,0 16,2 12,8 9 5 12 6 ZW 1018,0 15 0 0,0
23.04.2018 02:00:00 10,8 9,9 5,4 16,2 12,8 7 4 11 6 WZW 1017,8 7 0 0,0
23.04.2018 01:00:00 11,6 10,2 8,0 16,3 12,7 7 4 16 9 WZW 1017,6 8 0 0,0
23.04.2018 00:00:00 13,6 11,5 13,3 16,3 12,7 12 7 24 13 W 1017,3 10 0 0,0
22.04.2018 23:00:00 14,4 12,6 13,5 16,3 12,7 13 7 21 11 W 1016,7 10 0 0,0
22.04.2018 22:00:00 14,8 13,0 14,1 16,3 12,7 10 5 19 11 WZW 1016,1 11 0 0,0
22.04.2018 21:00:00 15,2 13,2 15,0 16,3 12,7 13 7 21 12 WZW 1015,3 14 4 0,0
22.04.2018 20:00:00 15,6 13,1 15,4 16,2 12,7 11 6 27 14 WZW 1014,9 18 0 0,0
22.04.2018 19:00:00 16,7 13,6 17,9 16,1 12,7 17 9 25 13 W 1014,7 19 0 0,0
22.04.2018 18:00:00 19,1 14,1 21,9 15,9 12,7 16 9 27 14 W 1014,1 19 11 0,0
22.04.2018 17:00:00 21,1 13,0 26,2 15,8 12,7 14 8 33 18 W 1013,8 19 28 0,0
22.04.2018 16:00:00 22,4 13,2 33,2 15,6 12,6 15 8 24 13 WZW 1013,8 18 58 0,0
22.04.2018 15:00:00 20,7 14,8 33,5 15,5 12,6 13 7 22 12 ZW 1014,0 19 60 0,0
22.04.2018 14:00:00 19,9 14,3 31,6 15,5 12,6 11 6 31 17 WZW 1014,1 18 60 0,0
22.04.2018 13:00:00 18,6 14,3 27,2 15,4 12,6 23 12 33 18 W 1014,4 14 50 0,0
22.04.2018 12:00:00 20,6 14,3 25,7 15,4 12,6 16 9 26 14 WZW 1013,6 18 41 0,0
22.04.2018 11:00:00 19,2 13,1 22,4 15,5 12,6 13 7 22 12 ZZW 1013,4 19 41 0,0
22.04.2018 10:00:00 17,6 13,3 16,3 15,6 12,6 8 4 16 9 ZW 1013,5 16 44 0,0
22.04.2018 09:00:00 14,7 11,7 9,2 15,7 12,6 5 3 11 6 Z 1013,3 16 36 0,0
22.04.2018 08:00:00 12,1 10,7 7,9 15,8 12,6 5 3 9 5 ZZO 1013,1 14 0 0,0
22.04.2018 07:00:00 11,4 10,3 6,7 15,9 12,6 6 3 11 6 ZZO 1013,0 14 0 0,0
22.04.2018 06:00:00 11,4 10,5 4,3 16,0 12,6 8 4 9 5 ZZO 1013,1 10 0 0,0
22.04.2018 05:00:00 11,0 10,1 4,2 16,1 12,6 2 1 5 3 Z 1013,6 12 0 0,0
22.04.2018 04:00:00 11,9 10,6 5,1 16,2 12,5 3 2 4 2 Z 1013,9 15 0 0,0
22.04.2018 03:00:00 12,5 10,9 6,7 16,3 12,5 0 0 4 2 N 1014,2 15 0 0,0
22.04.2018 02:00:00 12,7 10,6 6,6 16,3 12,5 3 1 3 2 ZZO 1014,4 15 0 0,0
22.04.2018 01:00:00 12,8 10,5 6,6 16,4 12,5 3 1 6 4 W 1014,5 17 0 0,0
22.04.2018 00:00:00 14,5 10,3 7,4 16,4 12,5 3 1 4 2 O 1014,6 18 0 0,0
21.04.2018 23:00:00 15,9 10,0 8,1 16,4 12,5 2 1 4 2 NNW 1015,0 19 0 0,0
21.04.2018 22:00:00 17,0 9,4 8,8 16,4 12,5 2 1 11 6 NW 1015,2 20 0 0,0
21.04.2018 21:00:00 19,5 9,9 13,1 16,3 12,5 7 4 22 12 WNW 1015,0 20 10 0,0
21.04.2018 20:00:00 22,3 11,1 19,9 16,2 12,5 16 8 25 14 W 1015,2 19 60 0,0
21.04.2018 19:00:00 24,0 12,3 26,8 16,1 12,5 12 6 21 11 ZW 1015,3 20 60 0,0
21.04.2018 18:00:00 25,1 12,3 33,1 15,9 12,4 12 7 19 10 WZW 1015,5 19 60 0,0
21.04.2018 17:00:00 25,7 11,8 35,3 15,7 12,4 13 7 23 12 ZW 1016,0 36 60 0,0
21.04.2018 16:00:00 26,5 12,5 36,3 15,6 12,4 15 8 25 13 ZZW 1016,7 19 60 0,0
21.04.2018 15:00:00 26,1 11,8 36,5 15,5 12,4 14 7 24 13 Z 1017,1 17 60 0,0
21.04.2018 14:00:00 25,3 16,2 34,1 15,4 12,4 8 4 15 8 ZZO 1017,5 19 60 0,0
21.04.2018 13:00:00 22,3 14,9 21,9 15,4 12,4 9 5 20 11 O 1018,1 18 10 0,0
21.04.2018 12:00:00 21,7 13,6 24,1 15,4 12,4 12 7 18 10 ZO 1018,8 12 36 0,0
21.04.2018 11:00:00 21,9 14,3 21,5 15,4 12,4 8 4 17 9 ZZO 1018,8 19 35 0,0
21.04.2018 10:00:00 20,0 13,9 21,7 15,5 12,4 6 3 22 12 OZO 1018,8 20 52 0,0
21.04.2018 09:00:00 18,6 13,0 13,0 15,5 12,4 10 5 16 9 O 1018,6 20 50 0,0
21.04.2018 08:00:00 15,1 11,9 10,9 15,6 12,4 3 1 10 6 O 1018,7 32 1 0,0
21.04.2018 07:00:00 16,7 11,8 12,1 15,6 12,3 8 5 16 8 O 1018,4 34 0 0,0
21.04.2018 06:00:00 17,3 12,0 9,4 15,7 12,4 6 4 15 8 ONO 1018,4 28 0 0,0
21.04.2018 05:00:00 14,4 11,0 7,9 15,8 12,3 7 4 11 6 NO 1018,9 28 0 0,0
21.04.2018 04:00:00 17,6 12,1 9,9 15,9 12,3 0 0 9 5 N 1019,2 32 0 0,0
21.04.2018 03:00:00 16,6 13,3 11,6 15,9 12,3 4 2 7 4 ONO 1019,4 26 0 0,0
21.04.2018 02:00:00 18,6 13,9 8,1 16,0 12,3 4 2 7 4 NO 1019,8 27 0 0,0
21.04.2018 01:00:00 16,2 12,7 8,6 16,0 12,3 0 0 0 0 N 1019,9 28 0 0,0
21.04.2018 00:00:00 16,2 12,6 9,1 16,0 12,3 0 0 4 2 N 1020,2 30 0 0,0
20.04.2018 23:00:00 18,0 12,7 10,3 16,0 12,3 4 2 6 4 NW 1020,5 35 0 0,0
20.04.2018 22:00:00 20,1 11,8 11,2 15,9 12,2 3 1 12 7 N 1020,4 49 0 0,0
20.04.2018 21:00:00 22,8 11,5 14,1 15,8 12,2 5 3 11 6 NO 1020,0 55 8 0,0
20.04.2018 20:00:00 25,5 12,3 22,6 15,7 12,2 5 3 20 11 OZO 1019,9 59 60 0,0
20.04.2018 19:00:00 26,6 12,3 30,0 15,5 12,2 11 6 25 14 OZO 1020,2 51 60 0,0
20.04.2018 18:00:00 26,9 11,8 35,3 15,4 12,2 11 6 20 11 ZO 1020,6 20 60 0,0
20.04.2018 17:00:00 27,4 12,6 35,0 15,2 12,2 11 6 26 14 ZO 1021,0 20 60 0,0
20.04.2018 16:00:00 26,9 9,3 35,0 15,0 12,2 14 7 25 13 O 1021,4 20 60 0,0
20.04.2018 15:00:00 26,7 8,6 35,7 14,9 12,2 13 7 24 13 ZZO 1022,0 19 60 0,0
20.04.2018 14:00:00 26,0 8,9 35,1 14,8 12,2 15 8 23 13 ZZO 1022,4 20 60 0,0
20.04.2018 13:00:00 25,4 8,8 35,2 14,7 12,2 12 6 21 12 ZZO 1022,8 44 60 0,0
20.04.2018 12:00:00 24,6 7,7 32,8 14,7 12,2 11 6 18 10 Z 1023,0 43 60 0,0
20.04.2018 11:00:00 23,2 10,9 30,1 14,7 12,2 11 6 18 10 ZZO 1022,9 39 60 0,0

tt = temperatuur
td = dauwpunt
tt 5cm = temperatuur 5cm
tt -20cm = temperatuur -20cm
tt -100cm = temperatuur -100cm
ff = windsnelheid
fx = windstoten
dd = windrichting
ppp = luchtdruk
vv = zicht
sd = Zonneschijnduur
rr = neerslag

Weerstations in de omgeving